Regional Weather Roundup
Issued by NWS Charleston, SC

Current Version | Previous Version | Graphics & Text | Print | Product List | Glossary On
Versions: 1 2 3 4 5 6 7 8 9 10 11 12 13 14 15 16 17 18 19 20 21 22 23 24 25 26 27 28 29 30 31 32 33 34 35 36 37 38 39 40 41 42 43 44 45 46 47 48 49 50
000
ASUS42 KCHS 011826
RWRCHS

REGIONAL WEATHER ROUNDUP
NATIONAL WEATHER SERVICE CHARLESTON SC
100 PM EST SUN MAR 01 2015

NOTE: "FAIR" INDICATES FEW OR NO CLOUDS BELOW 12,000 FEET WITH NO
SIGNIFICANT WEATHER AND/OR OBSTRUCTIONS TO VISIBILITY.

NOT ALL STATIONS ARE QUALITY CONTROLLED BY THE NATIONAL
WEATHER SERVICE. USE DATA WITH CAUTION...ESPECIALLY
DEWPOINT OBSERVATIONS.

SCZ027-030-031-034>040-042>050-011900-
...SOUTHEAST SOUTH CAROLINA...

CITY           SKY/WX    TMP DP  RH WIND       PRES   REMARKS
N CHARLESTON   LGT RAIN  43  41  93 N7        30.45F FOG
6HR MIN TEMP:  39; 6HR MAX TEMP:  43; 6HR PCP:  0.07;

WATERFRONT PRK NOT AVBL
MOUNT PLEASANT LGT RAIN  45  43  93 NW6       30.43F
PINOPOLIS        N/A     39  37  93 N9        30.41F WCI  33
MONCKS CORNER  DRIZZLE   41  39  93 N8        30.45F
SUMMERVILLE    CLOUDY    41  41 100 N6        30.46F FOG
BEAUFORT MCAS  LGT RAIN  44  42  93 N7        30.44F FOG
6HR MIN TEMP:  40; 6HR MAX TEMP:  44; 6HR PCP:  0.14;

BEAUFORT ARPT  DRIZZLE   45  45 100 CALM      30.42F
HILTON HEAD IS CLOUDY    45  45 100 N8        30.45F
WALTERBORO     HVY RAIN  41  41 100 N6        30.46F
ALLENDALE      MIX PCPN  41  41 100 CALM      30.45F VSB 3/4

...SOUTHERN MIDLANDS AND PEE DEE...

CITY           SKY/WX    TMP DP  RH WIND       PRES   REMARKS
GEORGETOWN     NOT AVBL
KINGSTREE      NOT AVBL
ORANGEBURG     CLOUDY    40  36  86 NE7       30.47F WCI  35
6HR MIN TEMP:  35; 6HR MAX TEMP:  40; 6HR PCP:  0.06;

BARNWELL       CLOUDY    41  39  93 N5        30.46F
AIKEN          CLOUDY    39  39 100 N3        30.48F FOG
MANNING        LGT RAIN N/A N/A N/A N8        30.46F
COLUMBIA       CLOUDY    39  36  89 N5        30.48F WCI  36
6HR MIN TEMP:  34; 6HR MAX TEMP:  39; 6HR PCP:  0.15;

SUMTER         LGT RAIN  37  35  92 NE6       30.46F WCI  32
6HR MIN TEMP:  33; 6HR MAX TEMP:  37; 6HR PCP:  0.17;

FLORENCE       LGT RAIN  37  34  89 N9        30.49F FOG     WCI  30
6HR MIN TEMP:  34; 6HR MAX TEMP:  37; 6HR PCP:  0.14;

MYRTLE BEACH   CLOUDY    46  39  76 N12       30.48F
N MYRTLE BEACH CLOUDY    46  42  86 NW6       30.44F
6HR MIN TEMP:  38; 6HR MAX TEMP:  52; 6HR PCP: TRACE;


$$

GAZ063-065-086>088-099>101-113>116-118-119-134>141-150-011900-
...SOUTHEAST GEORGIA...

CITY           SKY/WX    TMP DP  RH WIND       PRES   REMARKS
SAVANNAH ARPT  DRZL/FOG  45  43  93 N7        30.45F VSB 1
6HR MIN TEMP:  41; 6HR MAX TEMP:  45; 6HR PCP:  0.06;

HUNTER AAF     CLOUDY    46  46  99 N5        30.42F FOG
6HR MIN TEMP:  42; 6HR MAX TEMP:  46; 6HR PCP:  0.15;

FORT STEWART   CLOUDY    47  44  91 N7        30.42F
6HR MIN TEMP:  42; 6HR MAX TEMP:  47; 6HR PCP:  0.03;

STATESBORO     CLOUDY    43  43 100 N5        30.44F
SYLVANIA       CLOUDY    42  42 100 N3        30.45F FOG
CLAXTON        CLOUDY    45  45 100 NE5       30.44F

...CSRA...CENTRAL AND FAR SOUTHEAST GEORGIA...

CITY           SKY/WX    TMP DP  RH WIND       PRES   REMARKS
THOMSON        CLOUDY    41  41 100 CALM      30.50F
AUGUSTA-BUSH   CLOUDY    41  37  86 VRB5      30.48F
6HR MIN TEMP:  36; 6HR MAX TEMP:  41; 6HR PCP: TRACE;

AUGUSTA-DANIEL CLOUDY    42  38  85 N3        30.47F
SWAINSBORO     CLOUDY    45  43  93 NE3       30.45F
VIDALIA        CLOUDY    45  43  93 N5        30.44F
EASTMAN        CLOUDY    45  45 100 NE5       30.46F FOG
HAZLEHURST     CLOUDY    47  47 100 NE3       30.41F
ALMA           CLOUDY    48  45  89 NE3       30.43F
6HR MIN TEMP:  43; 6HR MAX TEMP:  49;

WAYCROSS       CLOUDY    55  51  87 NE5       30.41F
JESUP          CLOUDY    52  50  93 N5        30.42F FOG
BAXLEY         CLOUDY    50  46  87 NE6       30.41F
BRUNSWICK      CLOUDY    52  50  93 N6        30.42F
SAINT SIMONS   CLOUDY    52  49  89 N8        30.42F
6HR MIN TEMP:  46; 6HR MAX TEMP:  52; 6HR PCP: TRACE;


$$

SCZ027-028-034-036>038-045-046-048>050-GAZ119-141-011900-
...LAKE AND SUPPLEMENTAL COASTAL OBSERVATIONS...

STATION/POSITION TIME  TEMP    WIND        PRES    WAVE   SWELL
                       AIR SEA DIR/SP/G            HT/PER HT/PER/DIR
                 (UTC) (F)     (DEG/KT/KT) (MB)    (FT/S) (FT/S/D)
UPR LAKE MARION  NOT AVBL
WINYAH BAY       1700   45     320/  7     1031.0S
LAKE MURRAY      1800   38     360/  2/  3 1031.2F
ACE BASIN NERRS  NOT AVBL
FORT PULASKI     1700   44 49  360/  7/ 10 1032.1F
SAPELO ISLAND    1800   50      10/  8     1030.0F

$$

ANZ835-935-AMZ111-154-330-350-352-354-370-450-454-472-011900-
...C-MAN AND BUOY OBSERVATIONS...

STATION/POSITION TIME  TEMP    WIND        PRES    WAVE   SWELL
                       AIR SEA DIR/SP/G            HT/PER HT/PER/DIR
                 (UTC) (F)     (DEG/KT/KT) (MB)    (FT/S) (FT/S/D)
BUOY 41004       1750   70 68  140/ 14/ 17 1029.0F   8/ 7   7/ 7
BUOY 41008       1750   47 52   20/ 16/ 17 1030.1F   6/ 8   3/100/ 8
FOLLY BEACH CMAN 1800   44     340/  7/  9 1031.0F
CAPERS NEARSHORE NOT AVBL
FRIPP NEARSHORE  1700   43     360/ 14/ 17 1030.3F


STATION/POSITION TIME  TEMP    WIND        PRES    WAVE   SWELL
                       AIR SEA DIR/SP/G            HT/PER HT/PER/DIR
                 (UTC) (F)     (DEG/KT/KT) (MB)    (FT/S) (FT/S/D)
5E ST. MARYS GA  1721      52                N/A     6/10   2/ 80/11
FRYING PAN BUOY  1750   65 61  160/ 12/ 16 1030.5F   6/ 6   5/100/ 6
BUOY 41025       NOT AVBL
CAPE LOOKOUT NC  1800   57     140/  9/ 10 1030.4F
BUOY 41002       1750   68 72  120/ 19/ 21 1031.3F   8/ 7   3/ 90/ 9
BUOY 41010       1720   71 74   90/ 19/ 21 1028.5F
ST AUGUSTINE FL  1800   52     360/ 16/ 16 1029.6F


$$



USA.gov is the U.S. government's official web portal to all federal, state and local government web resources and services.